Hourly Data Report for December 11, 2017

VICTORIA UNIVERSITY CS
BRITISH COLUMBIA

48°27'25.200" N
123°18'16.600" W
60.10 m
1018598
71783
WYJ

Download Data

Hourly Data (December 2017)
Hourly Data Report for December 11, 2017
TIME
LST
Temp Definition
°C
Dew Point Definition
°C
Rel Hum Definition
%
Precip. Amount Definition
mm

Wind Dir Definition
10's deg

Wind Spd Definition
km/h
Visibility Definition
km
Stn Press Definition
kPa
Hmdx Definition


Wind Chill Definition


Weather Definition


00:00 4.8 3.4 90 0.0 1 5   101.96     LegendNANA
01:00 4.9 3.7 92 0.0 2 6   101.96     LegendNANA
02:00 4.9 3.2 88 0.0 36 4   101.94     LegendNANA
03:00 4.8 3.0 88 0.0 35 6   101.95     LegendNANA
04:00 4.8 2.3 84 0.0 1 8   101.94     LegendNANA
05:00 4.7 2.9 88 0.0 36 8   101.92     LegendNANA
06:00 4.1 2.6 90 0.0 1 5   101.94     LegendNANA
07:00 4.1 3.1 93 0.0 4 4   101.93     LegendNANA
08:00 4.0 3.4 96 0.0 1 5   101.94     LegendNANA
09:00 3.6 3.0 96 0.0 34 5   101.93     LegendNANA
10:00 6.2 4.2 87 0.0 3 8   101.98     LegendNANA
11:00 7.0 2.0 71 0.0 5 4   101.98     LegendNANA
12:00 7.6 1.2 64 0.0 9 7   101.98     LegendNANA
13:00 6.9 1.6 69 0.0 8 4   101.97     LegendNANA
14:00 7.0 1.9 70 0.0 10 5   101.99     LegendNANA
15:00 5.3 2.5 82 0.0 10 4   102.02     LegendNANA
16:00 4.4 2.5 88 0.0 0 1   102.05     LegendNANA
17:00 2.7 1.9 95 0.0   0   102.06     LegendNANA
18:00 1.6 1.1 96 0.0 31 2   102.05     LegendNANA
19:00 2.4 2.0 97 0.0 31 6   102.08     LegendNANA
20:00 2.2 1.6 96 0.0 35 4   102.13     LegendNANA
21:00 2.6 1.8 95 0.0 35 5   102.14     LegendNANA
22:00 3.5 2.2 91 0.0 34 5   102.16     LegendNANA
23:00 5.0 3.4 89 0.0 35 6   102.20     LegendNANA

Notes on Data Quality.

Legend

  • E = Estimated
  • M = Missing
  • NA = Not Available*
  • [empty] = Indicates an unobserved value
Date modified: